Time,TemperatureF,DewpointF,PressureIn,WindDirection,WindDirectionDegrees,WindSpeedMPH,WindSpeedGustMPH,Humidity,HourlyPrecipIn,Conditions,Clouds,dailyrainin,SolarRadiationWatts/m^2,SoftwareType,DateUTC
2013-01-25 00:00:00,10.4,3.3,30.54,North,4,0.0,0.0,72,0.00,,,0.00,0,HR-IXPWINDi_r2_v1.2.,2013-01-25 05:00:00,
2013-01-25 00:05:00,10.4,3.6,30.53,North,4,0.0,0.0,73,0.00,,,0.00,0,HR-IXPWINDi_r2_v1.2.,2013-01-25 05:05:00,
2013-01-25 00:10:00,10.5,3.6,30.53,North,4,0.0,0.0,73,0.00,,,0.00,0,HR-IXPWINDi_r2_v1.2.,2013-01-25 05:10:00,
2013-01-25 00:15:00,10.5,3.6,30.53,North,4,0.0,0.0,73,0.00,,,0.00,0,HR-IXPWINDi_r2_v1.2.,2013-01-25 05:15:00,
2013-01-25 00:20:00,10.5,3.6,30.52,North,4,0.0,0.0,73,0.00,,,0.00,0,HR-IXPWINDi_r2_v1.2.,2013-01-25 05:20:00,
2013-01-25 00:26:00,10.7,4.1,30.52,North,4,0.0,0.0,74,0.00,,,0.00,0,HR-IXPWINDi_r2_v1.2.,2013-01-25 05:26:00,
2013-01-25 00:31:00,10.7,4.1,30.52,North,4,0.0,0.0,74,0.00,,,0.00,0,HR-IXPWINDi_r2_v1.2.,2013-01-25 05:31:00,
2013-01-25 00:36:00,10.9,4.3,30.51,North,4,0.0,0.0,74,0.00,,,0.00,0,HR-IXPWINDi_r2_v1.2.,2013-01-25 05:36:00,
2013-01-25 00:41:00,10.9,4.3,30.51,North,4,0.0,0.0,74,0.00,,,0.00,0,HR-IXPWINDi_r2_v1.2.,2013-01-25 05:41:00,
2013-01-25 00:46:00,10.9,4.3,30.51,North,4,0.0,0.0,74,0.00,,,0.00,0,HR-IXPWINDi_r2_v1.2.,2013-01-25 05:46:00,
2013-01-25 00:51:00,11.1,4.5,30.49,North,4,0.0,0.0,74,0.00,,,0.00,0,HR-IXPWINDi_r2_v1.2.,2013-01-25 05:51:00,
2013-01-25 00:57:00,11.1,4.5,30.49,North,4,0.0,0.0,74,0.00,,,0.00,0,HR-IXPWINDi_r2_v1.2.,2013-01-25 05:57:00,
2013-01-25 01:02:00,11.1,4.5,30.49,North,4,0.0,0.0,74,0.00,,,0.00,0,HR-IXPWINDi_r2_v1.2.,2013-01-25 06:02:00,
2013-01-25 01:07:00,11.1,4.5,30.49,North,4,0.0,0.0,74,0.00,,,0.00,0,HR-IXPWINDi_r2_v1.2.,2013-01-25 06:07:00,
2013-01-25 01:13:00,11.1,4.5,30.49,North,4,0.0,0.0,74,0.00,,,0.00,0,HR-IXPWINDi_r2_v1.2.,2013-01-25 06:13:00,
2013-01-25 01:18:00,11.1,4.5,30.49,North,4,0.0,0.0,74,0.00,,,0.00,0,HR-IXPWINDi_r2_v1.2.,2013-01-25 06:18:00,
2013-01-25 01:23:00,11.1,4.8,30.49,North,4,0.0,0.0,75,0.00,,,0.00,0,HR-IXPWINDi_r2_v1.2.,2013-01-25 06:23:00,
2013-01-25 01:28:00,11.1,4.8,30.49,North,4,0.0,0.0,75,0.00,,,0.00,0,HR-IXPWINDi_r2_v1.2.,2013-01-25 06:28:00,
2013-01-25 01:33:00,11.1,4.8,30.49,North,4,0.0,0.0,75,0.00,,,0.00,0,HR-IXPWINDi_r2_v1.2.,2013-01-25 06:33:00,
2013-01-25 01:38:00,11.1,4.8,30.48,North,4,0.0,0.0,75,0.00,,,0.00,0,HR-IXPWINDi_r2_v1.2.,2013-01-25 06:38:00,
2013-01-25 01:44:00,11.1,4.8,30.48,North,4,0.0,0.0,75,0.00,,,0.00,0,HR-IXPWINDi_r2_v1.2.,2013-01-25 06:44:00,
2013-01-25 01:49:00,11.1,4.8,30.48,North,4,0.0,0.0,75,0.00,,,0.00,0,HR-IXPWINDi_r2_v1.2.,2013-01-25 06:49:00,
2013-01-25 01:54:00,11.1,4.8,30.48,North,4,0.0,0.0,75,0.00,,,0.00,0,HR-IXPWINDi_r2_v1.2.,2013-01-25 06:54:00,
2013-01-25 01:59:00,11.1,4.8,30.48,North,4,0.0,0.0,75,0.00,,,0.00,0,HR-IXPWINDi_r2_v1.2.,2013-01-25 06:59:00,
2013-01-25 02:04:00,11.2,4.9,30.48,North,4,0.0,0.0,75,0.00,,,0.00,0,HR-IXPWINDi_r2_v1.2.,2013-01-25 07:04:00,
2013-01-25 02:10:00,11.2,4.9,30.48,North,4,0.0,0.0,75,0.00,,,0.00,0,HR-IXPWINDi_r2_v1.2.,2013-01-25 07:10:00,
2013-01-25 02:15:00,11.2,5.2,30.48,North,4,0.0,0.0,76,0.00,,,0.00,0,HR-IXPWINDi_r2_v1.2.,2013-01-25 07:15:00,
2013-01-25 02:20:00,11.2,4.9,30.48,North,4,0.0,0.0,75,0.00,,,0.00,0,HR-IXPWINDi_r2_v1.2.,2013-01-25 07:20:00,
2013-01-25 02:25:00,11.4,5.4,30.48,North,4,0.0,0.0,76,0.00,,,0.00,0,HR-IXPWINDi_r2_v1.2.,2013-01-25 07:25:00,
2013-01-25 02:30:00,11.4,5.4,30.48,North,4,0.0,0.0,76,0.00,,,0.00,0,HR-IXPWINDi_r2_v1.2.,2013-01-25 07:30:00,
2013-01-25 02:36:00,11.6,5.6,30.48,North,4,0.0,0.0,76,0.00,,,0.00,0,HR-IXPWINDi_r2_v1.2.,2013-01-25 07:36:00,
2013-01-25 02:41:00,11.6,5.6,30.48,North,4,0.0,0.0,76,0.00,,,0.00,0,HR-IXPWINDi_r2_v1.2.,2013-01-25 07:41:00,
2013-01-25 02:46:00,11.7,5.7,30.48,North,4,0.0,0.0,76,0.00,,,0.00,0,HR-IXPWINDi_r2_v1.2.,2013-01-25 07:46:00,
2013-01-25 02:51:00,11.7,5.7,30.47,North,4,0.0,0.0,76,0.00,,,0.00,0,HR-IXPWINDi_r2_v1.2.,2013-01-25 07:51:00,
2013-01-25 02:56:00,11.9,5.9,30.47,North,4,0.0,0.0,76,0.00,,,0.00,0,HR-IXPWINDi_r2_v1.2.,2013-01-25 07:56:00,
2013-01-25 03:01:00,11.9,5.9,30.47,North,4,0.0,1.0,76,0.00,,,0.00,0,HR-IXPWINDi_r2_v1.2.,2013-01-25 08:01:00,
2013-01-25 03:07:00,12.1,5.8,30.47,North,4,0.0,1.0,75,0.00,,,0.00,0,HR-IXPWINDi_r2_v1.2.,2013-01-25 08:07:00,
2013-01-25 03:12:00,12.1,5.8,30.47,North,4,0.0,0.0,75,0.00,,,0.00,0,HR-IXPWINDi_r2_v1.2.,2013-01-25 08:12:00,
2013-01-25 03:17:00,12.3,6.0,30.47,North,5,0.0,3.0,75,0.00,,,0.00,0,HR-IXPWINDi_r2_v1.2.,2013-01-25 08:17:00,
2013-01-25 03:22:00,12.4,6.1,30.46,North,5,0.0,3.0,75,0.00,,,0.00,0,HR-IXPWINDi_r2_v1.2.,2013-01-25 08:22:00,
2013-01-25 03:27:00,12.4,5.8,30.46,North,5,0.0,2.0,74,0.00,,,0.00,0,HR-IXPWINDi_r2_v1.2.,2013-01-25 08:27:00,
2013-01-25 03:33:00,12.6,6.0,30.46,North,5,0.0,1.0,74,0.00,,,0.00,0,HR-IXPWINDi_r2_v1.2.,2013-01-25 08:33:00,
2013-01-25 03:38:00,12.6,6.0,30.45,North,5,0.0,3.0,74,0.00,,,0.00,0,HR-IXPWINDi_r2_v1.2.,2013-01-25 08:38:00,
2013-01-25 03:43:00,12.6,5.7,30.45,North,5,0.0,3.0,73,0.00,,,0.00,0,HR-IXPWINDi_r2_v1.2.,2013-01-25 08:43:00,
2013-01-25 03:48:00,12.6,5.7,30.45,North,5,0.0,0.0,73,0.00,,,0.00,0,HR-IXPWINDi_r2_v1.2.,2013-01-25 08:48:00,
2013-01-25 03:54:00,12.8,5.9,30.45,SE,136,1.0,3.0,73,0.00,,,0.00,0,HR-IXPWINDi_r2_v1.2.,2013-01-25 08:54:00,
2013-01-25 03:59:00,12.8,5.6,30.45,SE,136,0.0,3.0,72,0.00,,,0.00,0,HR-IXPWINDi_r2_v1.2.,2013-01-25 08:59:00,
2013-01-25 04:04:00,12.9,5.7,30.45,SE,136,0.0,3.0,72,0.00,,,0.00,0,HR-IXPWINDi_r2_v1.2.,2013-01-25 09:04:00,
2013-01-25 04:09:00,12.9,5.4,30.45,SE,139,3.0,3.0,71,0.00,,,0.00,0,HR-IXPWINDi_r2_v1.2.,2013-01-25 09:09:00,
2013-01-25 04:14:00,12.9,5.4,30.45,SE,139,2.0,4.0,71,0.00,,,0.00,0,HR-IXPWINDi_r2_v1.2.,2013-01-25 09:14:00,
2013-01-25 04:19:00,12.9,5.0,30.45,SE,138,2.0,6.0,70,0.00,,,0.00,0,HR-IXPWINDi_r2_v1.2.,2013-01-25 09:19:00,
2013-01-25 04:24:00,12.9,5.0,30.44,SE,138,3.0,6.0,70,0.00,,,0.00,0,HR-IXPWINDi_r2_v1.2.,2013-01-25 09:24:00,
2013-01-25 04:30:00,12.9,4.7,30.44,ESE,109,2.0,4.0,69,0.00,,,0.00,0,HR-IXPWINDi_r2_v1.2.,2013-01-25 09:30:00,
2013-01-25 04:35:00,12.9,4.7,30.42,ESE,104,0.0,4.0,69,0.00,,,0.00,0,HR-IXPWINDi_r2_v1.2.,2013-01-25 09:35:00,
2013-01-25 04:40:00,12.9,4.7,30.42,ESE,118,0.0,3.0,69,0.00,,,0.00,0,HR-IXPWINDi_r2_v1.2.,2013-01-25 09:40:00,
2013-01-25 04:45:00,12.9,4.7,30.42,NE,47,0.0,3.0,69,0.00,,,0.00,0,HR-IXPWINDi_r2_v1.2.,2013-01-25 09:45:00,
2013-01-25 04:50:00,12.9,4.7,30.43,NE,47,0.0,2.0,69,0.00,,,0.00,0,HR-IXPWINDi_r2_v1.2.,2013-01-25 09:50:00,
2013-01-25 04:55:00,12.9,4.4,30.43,NE,47,0.0,2.0,68,0.00,,,0.00,0,HR-IXPWINDi_r2_v1.2.,2013-01-25 09:55:00,
2013-01-25 05:01:00,12.9,4.4,30.43,ESE,115,4.0,4.0,68,0.00,,,0.00,0,HR-IXPWINDi_r2_v1.2.,2013-01-25 10:01:00,
2013-01-25 05:06:00,13.1,4.6,30.43,ESE,115,0.0,4.0,68,0.00,,,0.00,0,HR-IXPWINDi_r2_v1.2.,2013-01-25 10:06:00,
2013-01-25 05:11:00,13.1,4.6,30.43,ESE,115,0.0,4.0,68,0.00,,,0.00,0,HR-IXPWINDi_r2_v1.2.,2013-01-25 10:11:00,
2013-01-25 05:16:00,13.1,4.3,30.43,ENE,63,0.0,3.0,67,0.00,,,0.00,0,HR-IXPWINDi_r2_v1.2.,2013-01-25 10:16:00,
2013-01-25 05:21:00,13.1,4.3,30.43,ESE,113,2.0,4.0,67,0.00,,,0.00,0,HR-IXPWINDi_r2_v1.2.,2013-01-25 10:21:00,
2013-01-25 05:26:00,13.1,4.3,30.43,East,94,0.0,4.0,67,0.00,,,0.00,0,HR-IXPWINDi_r2_v1.2.,2013-01-25 10:26:00,
2013-01-25 05:31:00,13.3,4.5,30.43,ESE,119,0.0,3.0,67,0.00,,,0.00,0,HR-IXPWINDi_r2_v1.2.,2013-01-25 10:31:00,
2013-01-25 05:37:00,13.3,4.5,30.40,East,85,0.0,3.0,67,0.00,,,0.00,0,HR-IXPWINDi_r2_v1.2.,2013-01-25 10:37:00,
2013-01-25 05:42:00,13.3,4.1,30.40,East,87,0.0,3.0,66,0.00,,,0.00,0,HR-IXPWINDi_r2_v1.2.,2013-01-25 10:42:00,
2013-01-25 05:47:00,13.3,4.5,30.40,ENE,69,0.0,3.0,67,0.00,,,0.00,0,HR-IXPWINDi_r2_v1.2.,2013-01-25 10:47:00,
2013-01-25 05:52:00,13.3,4.5,30.40,East,87,0.0,3.0,67,0.00,,,0.00,0,HR-IXPWINDi_r2_v1.2.,2013-01-25 10:52:00,
2013-01-25 05:57:00,13.5,4.7,30.40,ENE,57,0.0,4.0,67,0.00,,,0.00,0,HR-IXPWINDi_r2_v1.2.,2013-01-25 10:57:00,
2013-01-25 06:03:00,13.5,4.7,30.40,ENE,58,0.0,4.0,67,0.00,,,0.00,0,HR-IXPWINDi_r2_v1.2.,2013-01-25 11:03:00,
2013-01-25 06:08:00,13.3,4.1,30.38,ENE,73,0.0,5.0,66,0.00,,,0.00,0,HR-IXPWINDi_r2_v1.2.,2013-01-25 11:08:00,
2013-01-25 06:13:00,13.3,4.1,30.38,NE,51,0.0,5.0,66,0.00,,,0.00,0,HR-IXPWINDi_r2_v1.2.,2013-01-25 11:13:00,
2013-01-25 06:18:00,13.5,4.7,30.38,NE,42,0.0,5.0,67,0.00,,,0.00,0,HR-IXPWINDi_r2_v1.2.,2013-01-25 11:18:00,
2013-01-25 06:23:00,13.5,4.7,30.37,NE,40,1.0,5.0,67,0.00,,,0.00,0,HR-IXPWINDi_r2_v1.2.,2013-01-25 11:23:00,
2013-01-25 06:28:00,13.5,4.7,30.37,SE,124,0.0,5.0,67,0.00,,,0.00,0,HR-IXPWINDi_r2_v1.2.,2013-01-25 11:28:00,
2013-01-25 06:33:00,13.5,4.3,30.37,North,7,2.0,8.0,66,0.00,,,0.00,0,HR-IXPWINDi_r2_v1.2.,2013-01-25 11:33:00,
2013-01-25 06:39:00,13.5,4.3,30.37,ENE,75,1.0,8.0,66,0.00,,,0.00,0,HR-IXPWINDi_r2_v1.2.,2013-01-25 11:39:00,
2013-01-25 06:44:00,13.5,4.3,30.37,NE,49,1.0,6.0,66,0.00,,,0.00,0,HR-IXPWINDi_r2_v1.2.,2013-01-25 11:44:00,
2013-01-25 06:49:00,13.5,4.3,30.37,NE,47,0.0,6.0,66,0.00,,,0.00,0,HR-IXPWINDi_r2_v1.2.,2013-01-25 11:49:00,
2013-01-25 06:54:00,13.5,4.3,30.37,SE,134,0.0,7.0,66,0.00,,,0.00,0,HR-IXPWINDi_r2_v1.2.,2013-01-25 11:54:00,
2013-01-25 06:59:00,13.5,4.3,30.37,NE,45,0.0,7.0,66,0.00,,,0.00,0,HR-IXPWINDi_r2_v1.2.,2013-01-25 11:59:00,
2013-01-25 07:04:00,13.5,4.0,30.37,ENE,65,0.0,6.0,65,0.00,,,0.00,0,HR-IXPWINDi_r2_v1.2.,2013-01-25 12:04:00,
2013-01-25 07:09:00,13.6,4.4,30.35,ENE,63,3.0,6.0,66,0.00,,,0.00,0,HR-IXPWINDi_r2_v1.2.,2013-01-25 12:09:00,
2013-01-25 07:15:00,13.6,4.4,30.35,NE,40,2.0,6.0,66,0.00,,,0.00,0,HR-IXPWINDi_r2_v1.2.,2013-01-25 12:15:00,
2013-01-25 07:20:00,13.6,4.1,30.34,NE,56,0.0,6.0,65,0.00,,,0.00,0,HR-IXPWINDi_r2_v1.2.,2013-01-25 12:20:00,
2013-01-25 07:25:00,13.6,4.1,30.34,East,91,2.0,10.0,65,0.00,,,0.00,0,HR-IXPWINDi_r2_v1.2.,2013-01-25 12:25:00,
2013-01-25 07:30:00,13.6,4.1,30.34,NNE,19,2.0,10.0,65,0.00,,,0.00,0,HR-IXPWINDi_r2_v1.2.,2013-01-25 12:30:00,
2013-01-25 07:35:00,13.6,4.1,30.32,ENE,57,0.0,6.0,65,0.00,,,0.00,0,HR-IXPWINDi_r2_v1.2.,2013-01-25 12:35:00,
2013-01-25 07:41:00,13.6,4.1,30.32,ESE,116,1.0,6.0,65,0.00,,,0.00,0,HR-IXPWINDi_r2_v1.2.,2013-01-25 12:41:00,
2013-01-25 07:46:00,13.6,4.1,30.32,East,79,4.0,6.0,65,0.00,,,0.00,0,HR-IXPWINDi_r2_v1.2.,2013-01-25 12:46:00,
2013-01-25 07:51:00,13.6,4.1,30.30,NNE,22,1.0,6.0,65,0.00,,,0.00,5,HR-IXPWINDi_r2_v1.2.,2013-01-25 12:51:00,
2013-01-25 07:56:00,13.6,4.1,30.30,NE,50,2.0,6.0,65,0.00,,,0.00,7,HR-IXPWINDi_r2_v1.2.,2013-01-25 12:56:00,
2013-01-25 08:01:00,13.8,4.3,30.30,NE,47,3.0,9.0,65,0.00,,,0.00,11,HR-IXPWINDi_r2_v1.2.,2013-01-25 13:01:00,
2013-01-25 08:07:00,13.8,4.3,30.29,East,83,1.0,9.0,65,0.00,,,0.00,12,HR-IXPWINDi_r2_v1.2.,2013-01-25 13:07:00,
2013-01-25 08:12:00,13.8,4.3,30.29,NE,43,2.0,4.0,65,0.00,,,0.00,14,HR-IXPWINDi_r2_v1.2.,2013-01-25 13:12:00,
2013-01-25 08:17:00,13.8,4.3,30.29,NE,36,3.0,5.0,65,0.00,,,0.00,14,HR-IXPWINDi_r2_v1.2.,2013-01-25 13:17:00,
2013-01-25 08:22:00,14.0,4.8,30.28,ENE,77,0.0,5.0,66,0.00,,,0.00,16,HR-IXPWINDi_r2_v1.2.,2013-01-25 13:22:00,
2013-01-25 08:27:00,14.0,4.5,30.28,NE,34,0.0,6.0,65,0.00,,,0.00,21,HR-IXPWINDi_r2_v1.2.,2013-01-25 13:27:00,
2013-01-25 08:33:00,14.0,4.5,30.28,ENE,66,0.0,6.0,65,0.00,,,0.00,23,HR-IXPWINDi_r2_v1.2.,2013-01-25 13:33:00,
2013-01-25 08:38:00,14.1,4.2,30.29,NE,52,2.0,7.0,64,0.00,,,0.00,25,HR-IXPWINDi_r2_v1.2.,2013-01-25 13:38:00,
2013-01-25 08:43:00,14.1,4.2,30.29,ESE,117,1.0,7.0,64,0.00,,,0.00,25,HR-IXPWINDi_r2_v1.2.,2013-01-25 13:43:00,
2013-01-25 08:48:00,14.3,4.4,30.29,NE,47,0.0,7.0,64,0.00,,,0.00,23,HR-IXPWINDi_r2_v1.2.,2013-01-25 13:48:00,
2013-01-25 08:54:00,14.3,4.1,30.28,SE,138,3.0,9.0,63,0.00,,,0.00,21,HR-IXPWINDi_r2_v1.2.,2013-01-25 13:54:00,
2013-01-25 08:59:00,14.4,3.8,30.28,ESE,106,0.0,9.0,62,0.00,,,0.00,21,HR-IXPWINDi_r2_v1.2.,2013-01-25 13:59:00,
2013-01-25 09:04:00,14.4,3.8,30.28,SSE,149,4.0,9.0,62,0.00,,,0.00,21,HR-IXPWINDi_r2_v1.2.,2013-01-25 14:04:00,
2013-01-25 09:09:00,14.4,4.2,30.29,SE,139,3.0,10.0,63,0.00,,,0.00,23,HR-IXPWINDi_r2_v1.2.,2013-01-25 14:09:00,
2013-01-25 09:15:00,14.4,4.9,30.29,SSE,154,4.0,10.0,65,0.00,,,0.00,28,HR-IXPWINDi_r2_v1.2.,2013-01-25 14:15:00,
2013-01-25 09:20:00,14.1,5.6,30.28,SE,137,3.0,12.0,68,0.00,,,0.00,35,HR-IXPWINDi_r2_v1.2.,2013-01-25 14:20:00,
2013-01-25 09:25:00,14.0,6.1,30.28,SE,134,4.0,12.0,70,0.00,,,0.00,37,HR-IXPWINDi_r2_v1.2.,2013-01-25 14:25:00,
2013-01-25 09:30:00,14.0,6.7,30.28,SE,132,6.0,10.0,72,0.00,,,0.00,37,HR-IXPWINDi_r2_v1.2.,2013-01-25 14:30:00,
2013-01-25 09:35:00,13.8,6.8,30.28,ESE,120,3.0,9.0,73,0.00,,,0.00,37,HR-IXPWINDi_r2_v1.2.,2013-01-25 14:35:00,
2013-01-25 09:41:00,13.8,7.1,30.28,ENE,70,0.0,6.0,74,0.00,,,0.00,39,HR-IXPWINDi_r2_v1.2.,2013-01-25 14:41:00,
2013-01-25 09:46:00,14.0,7.6,30.28,SE,140,0.0,4.0,75,0.00,,,0.00,37,HR-IXPWINDi_r2_v1.2.,2013-01-25 14:46:00,
2013-01-25 09:51:00,14.0,7.9,30.28,NE,50,0.0,4.0,76,0.00,,,0.00,37,HR-IXPWINDi_r2_v1.2.,2013-01-25 14:51:00,
2013-01-25 09:56:00,13.8,7.7,30.28,NE,51,0.0,1.0,76,0.00,,,0.00,47,HR-IXPWINDi_r2_v1.2.,2013-01-25 14:56:00,
2013-01-25 10:01:00,14.0,8.2,30.28,NE,51,0.0,1.0,77,0.00,,,0.00,44,HR-IXPWINDi_r2_v1.2.,2013-01-25 15:01:00,
2013-01-25 10:07:00,14.0,8.2,30.27,NE,51,0.0,0.0,77,0.00,,,0.00,37,HR-IXPWINDi_r2_v1.2.,2013-01-25 15:07:00,
2013-01-25 10:12:00,14.1,8.6,30.27,ESE,105,0.0,1.0,78,0.00,,,0.00,35,HR-IXPWINDi_r2_v1.2.,2013-01-25 15:12:00,
2013-01-25 10:17:00,14.3,8.8,30.27,ENE,69,2.0,2.0,78,0.00,,,0.00,32,HR-IXPWINDi_r2_v1.2.,2013-01-25 15:17:00,
2013-01-25 10:22:00,14.3,9.0,30.26,NE,50,0.0,2.0,79,0.00,,,0.00,28,HR-IXPWINDi_r2_v1.2.,2013-01-25 15:22:00,
2013-01-25 10:28:00,14.3,9.0,30.26,NNE,32,0.0,2.0,79,0.00,,,0.00,26,HR-IXPWINDi_r2_v1.2.,2013-01-25 15:28:00,
2013-01-25 10:33:00,14.3,9.3,30.26,NNE,25,0.0,2.0,80,0.00,,,0.00,28,HR-IXPWINDi_r2_v1.2.,2013-01-25 15:33:00,
2013-01-25 10:38:00,14.3,9.3,30.25,ENE,68,0.0,2.0,80,0.00,,,0.00,30,HR-IXPWINDi_r2_v1.2.,2013-01-25 15:38:00,
2013-01-25 10:44:00,14.3,9.6,30.25,NNE,23,1.0,2.0,81,0.00,,,0.00,26,HR-IXPWINDi_r2_v1.2.,2013-01-25 15:44:00,
2013-01-25 10:49:00,14.3,9.6,30.25,East,101,1.0,3.0,81,0.00,,,0.00,26,HR-IXPWINDi_r2_v1.2.,2013-01-25 15:49:00,
2013-01-25 10:54:00,14.3,9.6,30.23,ENE,76,3.0,4.0,81,0.00,,,0.00,30,HR-IXPWINDi_r2_v1.2.,2013-01-25 15:54:00,
2013-01-25 10:59:00,14.1,9.7,30.23,NE,54,0.0,4.0,82,0.00,,,0.00,28,HR-IXPWINDi_r2_v1.2.,2013-01-25 15:59:00,
2013-01-25 11:05:00,14.1,9.7,30.23,ENE,78,1.0,4.0,82,0.00,,,0.00,30,HR-IXPWINDi_r2_v1.2.,2013-01-25 16:05:00,
2013-01-25 11:10:00,14.1,9.9,30.21,NE,56,0.0,5.0,83,0.00,,,0.00,44,HR-IXPWINDi_r2_v1.2.,2013-01-25 16:10:00,
2013-01-25 11:15:00,14.1,9.9,30.21,ENE,58,0.0,5.0,83,0.00,,,0.00,51,HR-IXPWINDi_r2_v1.2.,2013-01-25 16:15:00,
2013-01-25 11:20:00,14.3,10.4,30.20,SSE,150,0.0,5.0,84,0.00,,,0.00,54,HR-IXPWINDi_r2_v1.2.,2013-01-25 16:20:00,
2013-01-25 11:26:00,14.4,10.5,30.20,NE,46,0.0,5.0,84,0.00,,,0.00,49,HR-IXPWINDi_r2_v1.2.,2013-01-25 16:26:00,
2013-01-25 11:31:00,14.6,10.7,30.20,East,80,0.0,5.0,84,0.00,,,0.00,54,HR-IXPWINDi_r2_v1.2.,2013-01-25 16:31:00,
2013-01-25 11:36:00,14.8,10.9,30.18,NE,44,0.0,5.0,84,0.00,,,0.00,62,HR-IXPWINDi_r2_v1.2.,2013-01-25 16:36:00,
2013-01-25 11:41:00,14.9,11.0,30.18,NNE,26,2.0,4.0,84,0.00,,,0.00,69,HR-IXPWINDi_r2_v1.2.,2013-01-25 16:41:00,
2013-01-25 11:46:00,15.1,11.2,30.18,ENE,74,0.0,5.0,84,0.00,,,0.00,72,HR-IXPWINDi_r2_v1.2.,2013-01-25 16:46:00,
2013-01-25 11:51:00,15.2,11.3,30.18,ENE,63,1.0,5.0,84,0.00,,,0.00,70,HR-IXPWINDi_r2_v1.2.,2013-01-25 16:51:00,
2013-01-25 11:57:00,15.4,11.5,30.18,ENE,72,0.0,3.0,84,0.00,,,0.00,76,HR-IXPWINDi_r2_v1.2.,2013-01-25 16:57:00,
2013-01-25 12:02:00,15.6,11.7,30.18,East,79,0.0,3.0,84,0.00,,,0.00,79,HR-IXPWINDi_r2_v1.2.,2013-01-25 17:02:00,
2013-01-25 12:07:00,15.9,12.0,30.16,NE,52,0.0,2.0,84,0.00,,,0.00,77,HR-IXPWINDi_r2_v1.2.,2013-01-25 17:07:00,
2013-01-25 12:12:00,16.1,11.9,30.16,East,91,2.0,3.0,83,0.00,,,0.00,76,HR-IXPWINDi_r2_v1.2.,2013-01-25 17:12:00,
2013-01-25 12:18:00,16.1,11.9,30.16,East,86,0.0,3.0,83,0.00,,,0.00,72,HR-IXPWINDi_r2_v1.2.,2013-01-25 17:18:00,
2013-01-25 12:23:00,16.1,11.9,30.15,East,90,0.0,3.0,83,0.00,,,0.00,74,HR-IXPWINDi_r2_v1.2.,2013-01-25 17:23:00,
2013-01-25 12:28:00,16.2,12.0,30.15,ENE,68,0.0,2.0,83,0.00,,,0.00,77,HR-IXPWINDi_r2_v1.2.,2013-01-25 17:28:00,
2013-01-25 12:33:00,16.2,11.7,30.15,ENE,69,0.0,3.0,82,0.00,,,0.00,72,HR-IXPWINDi_r2_v1.2.,2013-01-25 17:33:00,
2013-01-25 12:38:00,16.4,12.2,30.13,NNE,33,0.0,3.0,83,0.00,,,0.00,72,HR-IXPWINDi_r2_v1.2.,2013-01-25 17:38:00,
2013-01-25 12:43:00,16.7,12.5,30.13,NE,34,0.0,2.0,83,0.00,,,0.00,79,HR-IXPWINDi_r2_v1.2.,2013-01-25 17:43:00,
2013-01-25 12:48:00,16.9,12.7,30.13,NE,34,0.0,1.0,83,0.00,,,0.00,76,HR-IXPWINDi_r2_v1.2.,2013-01-25 17:48:00,
2013-01-25 12:54:00,17.2,13.0,30.12,NE,37,0.0,1.0,83,0.00,,,0.00,88,HR-IXPWINDi_r2_v1.2.,2013-01-25 17:54:00,
2013-01-25 12:59:00,17.3,13.1,30.12,NE,37,0.0,1.0,83,0.00,,,0.00,79,HR-IXPWINDi_r2_v1.2.,2013-01-25 17:59:00,
2013-01-25 13:04:00,17.5,12.7,30.12,NE,56,0.0,1.0,81,0.00,,,0.00,74,HR-IXPWINDi_r2_v1.2.,2013-01-25 18:04:00,
2013-01-25 13:09:00,17.5,12.7,30.11,NE,56,0.0,1.0,81,0.00,,,0.00,67,HR-IXPWINDi_r2_v1.2.,2013-01-25 18:09:00,
2013-01-25 13:14:00,17.7,12.9,30.11,ENE,58,0.0,1.0,81,0.00,,,0.00,63,HR-IXPWINDi_r2_v1.2.,2013-01-25 18:14:00,
2013-01-25 13:19:00,17.5,12.7,30.11,ENE,67,0.0,3.0,81,0.00,,,0.00,60,HR-IXPWINDi_r2_v1.2.,2013-01-25 18:19:00,
2013-01-25 13:25:00,17.7,12.9,30.09,ENE,77,1.0,3.0,81,0.00,,,0.00,56,HR-IXPWINDi_r2_v1.2.,2013-01-25 18:25:00,
2013-01-25 13:30:00,17.7,12.9,30.09,NE,54,0.0,2.0,81,0.00,,,0.00,58,HR-IXPWINDi_r2_v1.2.,2013-01-25 18:30:00,
2013-01-25 13:35:00,17.7,13.2,30.10,NE,54,0.0,1.0,82,0.00,,,0.00,47,HR-IXPWINDi_r2_v1.2.,2013-01-25 18:35:00,
2013-01-25 13:40:00,17.8,13.3,30.10,East,85,0.0,2.0,82,0.00,,,0.00,49,HR-IXPWINDi_r2_v1.2.,2013-01-25 18:40:00,
2013-01-25 13:45:00,18.0,13.2,30.10,East,85,0.0,2.0,81,0.00,,,0.00,42,HR-IXPWINDi_r2_v1.2.,2013-01-25 18:45:00,
2013-01-25 13:51:00,18.0,13.2,30.09,East,85,0.0,0.0,81,0.00,,,0.00,44,HR-IXPWINDi_r2_v1.2.,2013-01-25 18:51:00,
2013-01-25 13:56:00,18.1,13.6,30.09,East,85,0.0,0.0,82,0.00,,,0.00,46,HR-IXPWINDi_r2_v1.2.,2013-01-25 18:56:00,
2013-01-25 14:01:00,18.3,13.8,30.09,East,85,0.0,0.0,82,0.00,,,0.00,62,HR-IXPWINDi_r2_v1.2.,2013-01-25 19:01:00,
2013-01-25 14:06:00,18.4,13.6,30.08,East,85,0.0,1.0,81,0.00,,,0.00,65,HR-IXPWINDi_r2_v1.2.,2013-01-25 19:06:00,
2013-01-25 14:11:00,18.6,14.1,30.08,East,85,0.0,1.0,82,0.00,,,0.00,81,HR-IXPWINDi_r2_v1.2.,2013-01-25 19:11:00,
2013-01-25 14:16:00,19.1,14.5,30.08,East,85,0.0,1.0,82,0.00,,,0.00,105,HR-IXPWINDi_r2_v1.2.,2013-01-25 19:16:00,
2013-01-25 14:21:00,19.5,14.9,30.08,ENE,65,0.0,1.0,82,0.00,,,0.00,114,HR-IXPWINDi_r2_v1.2.,2013-01-25 19:21:00,
2013-01-25 14:27:00,20.0,15.1,30.08,ENE,65,0.0,0.0,81,0.00,,,0.00,91,HR-IXPWINDi_r2_v1.2.,2013-01-25 19:27:00,
2013-01-25 14:32:00,20.2,15.1,30.08,ENE,65,0.0,1.0,80,0.00,,,0.00,79,HR-IXPWINDi_r2_v1.2.,2013-01-25 19:32:00,
2013-01-25 14:37:00,20.3,15.1,30.06,ENE,65,0.0,1.0,80,0.00,,,0.00,86,HR-IXPWINDi_r2_v1.2.,2013-01-25 19:37:00,
2013-01-25 14:42:00,20.5,15.1,30.06,North,349,2.0,3.0,79,0.00,,,0.00,77,HR-IXPWINDi_r2_v1.2.,2013-01-25 19:42:00,
2013-01-25 14:47:00,20.2,14.5,30.06,NNW,344,0.0,3.0,78,0.00,,,0.00,46,HR-IXPWINDi_r2_v1.2.,2013-01-25 19:47:00,
2013-01-25 14:52:00,20.2,14.5,30.06,NNW,344,0.0,2.0,78,0.00,,,0.00,58,HR-IXPWINDi_r2_v1.2.,2013-01-25 19:52:00,
2013-01-25 14:57:00,20.2,14.8,30.06,NNW,344,0.0,1.0,79,0.00,,,0.00,56,HR-IXPWINDi_r2_v1.2.,2013-01-25 19:57:00,
2013-01-25 15:03:00,20.2,14.5,30.06,NNW,344,0.0,0.0,78,0.00,,,0.00,47,HR-IXPWINDi_r2_v1.2.,2013-01-25 20:03:00,
2013-01-25 15:08:00,20.0,14.0,30.06,NNW,344,0.0,0.0,77,0.00,,,0.00,49,HR-IXPWINDi_r2_v1.2.,2013-01-25 20:08:00,
2013-01-25 15:13:00,20.0,14.0,30.06,NNW,344,0.0,1.0,77,0.00,,,0.00,60,HR-IXPWINDi_r2_v1.2.,2013-01-25 20:13:00,
2013-01-25 15:18:00,20.0,14.0,30.06,NNE,19,0.0,1.0,77,0.00,,,0.00,60,HR-IXPWINDi_r2_v1.2.,2013-01-25 20:18:00,
2013-01-25 15:23:00,20.0,14.0,30.05,NNE,19,0.0,1.0,77,0.00,,,0.00,65,HR-IXPWINDi_r2_v1.2.,2013-01-25 20:23:00,
2013-01-25 15:28:00,20.2,14.2,30.05,NE,50,0.0,1.0,77,0.00,,,0.00,70,HR-IXPWINDi_r2_v1.2.,2013-01-25 20:28:00,
2013-01-25 15:34:00,20.2,14.2,30.05,NE,50,0.0,2.0,77,0.00,,,0.00,40,HR-IXPWINDi_r2_v1.2.,2013-01-25 20:34:00,
2013-01-25 15:39:00,20.0,14.0,30.05,NE,50,0.0,2.0,77,0.00,,,0.00,65,HR-IXPWINDi_r2_v1.2.,2013-01-25 20:39:00,
2013-01-25 15:44:00,20.2,14.5,30.05,NE,50,0.0,1.0,78,0.00,,,0.00,60,HR-IXPWINDi_r2_v1.2.,2013-01-25 20:44:00,
2013-01-25 15:49:00,20.2,14.5,30.05,NE,50,0.0,0.0,78,0.00,,,0.00,111,HR-IXPWINDi_r2_v1.2.,2013-01-25 20:49:00,
2013-01-25 15:54:00,20.3,14.6,30.05,NE,50,0.0,1.0,78,0.00,,,0.00,81,HR-IXPWINDi_r2_v1.2.,2013-01-25 20:54:00,
2013-01-25 16:00:00,20.3,14.3,30.05,NE,50,0.0,1.0,77,0.00,,,0.00,95,HR-IXPWINDi_r2_v1.2.,2013-01-25 21:00:00,
2013-01-25 16:05:00,20.3,14.3,30.05,NE,50,0.0,0.0,77,0.00,,,0.00,47,HR-IXPWINDi_r2_v1.2.,2013-01-25 21:05:00,
2013-01-25 16:10:00,20.2,14.2,30.04,NE,50,0.0,1.0,77,0.00,,,0.00,56,HR-IXPWINDi_r2_v1.2.,2013-01-25 21:10:00,
2013-01-25 16:15:00,20.3,14.6,30.04,NE,50,0.0,1.0,78,0.00,,,0.00,72,HR-IXPWINDi_r2_v1.2.,2013-01-25 21:15:00,
2013-01-25 16:20:00,20.5,14.5,30.04,NE,50,0.0,2.0,77,0.00,,,0.00,40,HR-IXPWINDi_r2_v1.2.,2013-01-25 21:20:00,
2013-01-25 16:26:00,20.3,14.3,30.04,NE,50,0.0,2.0,77,0.00,,,0.00,35,HR-IXPWINDi_r2_v1.2.,2013-01-25 21:26:00,
2013-01-25 16:31:00,20.2,14.2,30.04,NE,50,0.0,0.0,77,0.00,,,0.00,28,HR-IXPWINDi_r2_v1.2.,2013-01-25 21:31:00,
2013-01-25 16:36:00,20.0,14.0,30.04,NE,50,0.0,0.0,77,0.00,,,0.00,26,HR-IXPWINDi_r2_v1.2.,2013-01-25 21:36:00,
2013-01-25 16:41:00,19.9,13.6,30.04,NE,50,0.0,0.0,76,0.00,,,0.00,23,HR-IXPWINDi_r2_v1.2.,2013-01-25 21:41:00,
2013-01-25 16:46:00,19.7,13.4,30.04,NE,50,0.0,0.0,76,0.00,,,0.00,19,HR-IXPWINDi_r2_v1.2.,2013-01-25 21:46:00,
2013-01-25 16:52:00,19.5,13.5,30.04,NE,50,0.0,0.0,77,0.00,,,0.00,18,HR-IXPWINDi_r2_v1.2.,2013-01-25 21:52:00,
2013-01-25 16:57:00,19.5,13.5,30.04,NE,50,0.0,0.0,77,0.00,,,0.00,16,HR-IXPWINDi_r2_v1.2.,2013-01-25 21:57:00,
2013-01-25 17:02:00,19.4,13.4,30.04,NE,50,0.0,1.0,77,0.00,,,0.00,12,HR-IXPWINDi_r2_v1.2.,2013-01-25 22:02:00,
2013-01-25 17:07:00,19.1,13.1,30.03,NE,50,0.0,3.0,77,0.00,,,0.00,9,HR-IXPWINDi_r2_v1.2.,2013-01-25 22:07:00,
2013-01-25 17:12:00,18.9,12.9,30.03,NE,50,0.0,3.0,77,0.00,,,0.00,7,HR-IXPWINDi_r2_v1.2.,2013-01-25 22:12:00,
2013-01-25 17:18:00,18.8,12.8,30.03,NE,50,0.0,2.0,77,0.00,,,0.00,5,HR-IXPWINDi_r2_v1.2.,2013-01-25 22:18:00,
2013-01-25 17:23:00,18.6,12.9,30.03,NE,50,0.0,2.0,78,0.00,,,0.00,0,HR-IXPWINDi_r2_v1.2.,2013-01-25 22:23:00,
2013-01-25 17:28:00,18.4,12.7,30.03,NE,50,0.0,1.0,78,0.00,,,0.00,0,HR-IXPWINDi_r2_v1.2.,2013-01-25 22:28:00,
2013-01-25 17:33:00,18.4,12.7,30.03,NE,50,0.0,0.0,78,0.00,,,0.00,0,HR-IXPWINDi_r2_v1.2.,2013-01-25 22:33:00,
2013-01-25 17:39:00,18.3,12.6,30.03,NE,50,0.0,1.0,78,0.00,,,0.00,0,HR-IXPWINDi_r2_v1.2.,2013-01-25 22:39:00,
2013-01-25 17:44:00,18.3,12.9,30.03,NE,50,1.0,2.0,79,0.00,,,0.00,0,HR-IXPWINDi_r2_v1.2.,2013-01-25 22:44:00,
2013-01-25 17:49:00,18.1,12.7,30.03,East,85,0.0,3.0,79,0.00,,,0.00,0,HR-IXPWINDi_r2_v1.2.,2013-01-25 22:49:00,
2013-01-25 17:54:00,18.1,13.0,30.03,East,85,0.0,3.0,80,0.00,,,0.00,0,HR-IXPWINDi_r2_v1.2.,2013-01-25 22:54:00,
2013-01-25 17:59:00,18.1,13.0,30.03,East,85,0.0,1.0,80,0.00,,,0.00,0,HR-IXPWINDi_r2_v1.2.,2013-01-25 22:59:00,
2013-01-25 18:04:00,18.0,12.9,30.03,East,85,0.0,1.0,80,0.00,,,0.00,0,HR-IXPWINDi_r2_v1.2.,2013-01-25 23:04:00,
2013-01-25 18:10:00,18.0,13.2,30.04,South,177,1.0,1.0,81,0.00,,,0.00,0,HR-IXPWINDi_r2_v1.2.,2013-01-25 23:10:00,
2013-01-25 18:15:00,18.0,13.2,30.04,South,177,0.0,1.0,81,0.00,,,0.00,0,HR-IXPWINDi_r2_v1.2.,2013-01-25 23:15:00,
2013-01-25 18:20:00,18.0,13.2,30.04,South,177,0.0,1.0,81,0.00,,,0.00,0,HR-IXPWINDi_r2_v1.2.,2013-01-25 23:20:00,
2013-01-25 18:25:00,18.0,13.5,30.04,South,177,0.0,0.0,82,0.00,,,0.00,0,HR-IXPWINDi_r2_v1.2.,2013-01-25 23:25:00,
2013-01-25 18:31:00,17.8,13.3,30.04,South,177,0.0,0.0,82,0.00,,,0.00,0,HR-IXPWINDi_r2_v1.2.,2013-01-25 23:31:00,
2013-01-25 18:36:00,17.8,13.3,30.05,South,177,0.0,0.0,82,0.00,,,0.00,0,HR-IXPWINDi_r2_v1.2.,2013-01-25 23:36:00,
2013-01-25 18:41:00,17.8,13.3,30.05,South,177,0.0,0.0,82,0.00,,,0.00,0,HR-IXPWINDi_r2_v1.2.,2013-01-25 23:41:00,
2013-01-25 18:46:00,17.8,13.6,30.05,South,177,0.0,0.0,83,0.00,,,0.00,0,HR-IXPWINDi_r2_v1.2.,2013-01-25 23:46:00,
2013-01-25 18:51:00,17.8,13.6,30.05,South,177,0.0,0.0,83,0.00,,,0.00,0,HR-IXPWINDi_r2_v1.2.,2013-01-25 23:51:00,
2013-01-25 18:56:00,17.8,13.6,30.05,South,177,0.0,0.0,83,0.00,,,0.00,0,HR-IXPWINDi_r2_v1.2.,2013-01-25 23:56:00,
2013-01-25 19:01:00,17.8,13.6,30.05,South,177,0.0,0.0,83,0.00,,,0.00,0,HR-IXPWINDi_r2_v1.2.,2013-01-26 00:01:00,
2013-01-25 19:07:00,17.8,13.8,30.05,South,177,0.0,0.0,84,0.00,,,0.00,0,HR-IXPWINDi_r2_v1.2.,2013-01-26 00:07:00,
2013-01-25 19:12:00,17.8,13.8,30.05,South,177,0.0,0.0,84,0.00,,,0.00,0,HR-IXPWINDi_r2_v1.2.,2013-01-26 00:12:00,
2013-01-25 19:17:00,17.7,13.7,30.05,South,177,0.0,0.0,84,0.00,,,0.00,0,HR-IXPWINDi_r2_v1.2.,2013-01-26 00:17:00,
2013-01-25 19:22:00,17.7,13.7,30.05,South,177,0.0,0.0,84,0.00,,,0.00,0,HR-IXPWINDi_r2_v1.2.,2013-01-26 00:22:00,
2013-01-25 19:27:00,17.7,13.7,30.05,South,177,0.0,0.0,84,0.00,,,0.00,0,HR-IXPWINDi_r2_v1.2.,2013-01-26 00:27:00,
2013-01-25 19:33:00,17.7,13.7,30.05,South,177,0.0,0.0,84,0.00,,,0.00,0,HR-IXPWINDi_r2_v1.2.,2013-01-26 00:33:00,
2013-01-25 19:38:00,17.7,13.7,30.04,South,177,0.0,0.0,84,0.00,,,0.00,0,HR-IXPWINDi_r2_v1.2.,2013-01-26 00:38:00,
2013-01-25 19:43:00,17.7,13.7,30.04,South,177,0.0,0.0,84,0.00,,,0.00,0,HR-IXPWINDi_r2_v1.2.,2013-01-26 00:43:00,
2013-01-25 19:48:00,17.7,14.0,30.04,South,177,0.0,0.0,85,0.00,,,0.00,0,HR-IXPWINDi_r2_v1.2.,2013-01-26 00:48:00,
2013-01-25 19:53:00,17.7,14.0,30.05,South,177,0.0,0.0,85,0.00,,,0.00,0,HR-IXPWINDi_r2_v1.2.,2013-01-26 00:53:00,
2013-01-25 19:58:00,17.7,14.0,30.05,South,177,0.0,0.0,85,0.00,,,0.00,0,HR-IXPWINDi_r2_v1.2.,2013-01-26 00:58:00,
2013-01-25 20:03:00,17.7,14.0,30.05,South,177,0.0,0.0,85,0.00,,,0.00,0,HR-IXPWINDi_r2_v1.2.,2013-01-26 01:03:00,
2013-01-25 20:09:00,17.7,14.0,30.05,South,177,0.0,0.0,85,0.00,,,0.00,0,HR-IXPWINDi_r2_v1.2.,2013-01-26 01:09:00,
2013-01-25 20:14:00,17.7,14.0,30.05,South,177,0.0,0.0,85,0.00,,,0.00,0,HR-IXPWINDi_r2_v1.2.,2013-01-26 01:14:00,
2013-01-25 20:19:00,17.7,14.3,30.05,South,177,0.0,0.0,86,0.00,,,0.00,0,HR-IXPWINDi_r2_v1.2.,2013-01-26 01:19:00,
2013-01-25 20:24:00,17.7,14.3,30.05,South,177,0.0,0.0,86,0.00,,,0.00,0,HR-IXPWINDi_r2_v1.2.,2013-01-26 01:24:00,
2013-01-25 20:29:00,17.7,14.3,30.05,South,177,0.0,0.0,86,0.00,,,0.00,0,HR-IXPWINDi_r2_v1.2.,2013-01-26 01:29:00,
2013-01-25 20:34:00,17.7,14.3,30.05,South,177,0.0,0.0,86,0.00,,,0.00,0,HR-IXPWINDi_r2_v1.2.,2013-01-26 01:34:00,
2013-01-25 20:39:00,17.7,14.3,30.05,South,177,0.0,0.0,86,0.00,,,0.00,0,HR-IXPWINDi_r2_v1.2.,2013-01-26 01:39:00,
2013-01-25 20:44:00,17.7,14.3,30.05,South,177,0.0,0.0,86,0.00,,,0.00,0,HR-IXPWINDi_r2_v1.2.,2013-01-26 01:44:00,
2013-01-25 20:49:00,17.7,14.3,30.05,South,177,0.0,1.0,86,0.00,,,0.00,0,HR-IXPWINDi_r2_v1.2.,2013-01-26 01:49:00,
2013-01-25 20:55:00,17.7,14.3,30.05,South,177,0.0,1.0,86,0.00,,,0.00,0,HR-IXPWINDi_r2_v1.2.,2013-01-26 01:55:00,
2013-01-25 21:00:00,17.7,14.3,30.05,South,177,0.0,0.0,86,0.00,,,0.00,0,HR-IXPWINDi_r2_v1.2.,2013-01-26 02:00:00,
2013-01-25 21:05:00,17.7,14.5,30.05,South,177,0.0,0.0,87,0.00,,,0.00,0,HR-IXPWINDi_r2_v1.2.,2013-01-26 02:05:00,
2013-01-25 21:10:00,17.7,14.5,30.05,South,177,0.0,0.0,87,0.00,,,0.00,0,HR-IXPWINDi_r2_v1.2.,2013-01-26 02:10:00,
2013-01-25 21:15:00,17.7,14.5,30.05,South,177,0.0,0.0,87,0.00,,,0.00,0,HR-IXPWINDi_r2_v1.2.,2013-01-26 02:15:00,
2013-01-25 21:20:00,17.8,14.6,30.06,South,177,0.0,1.0,87,0.00,,,0.00,0,HR-IXPWINDi_r2_v1.2.,2013-01-26 02:20:00,
2013-01-25 21:25:00,17.8,14.6,30.06,WNW,289,0.0,2.0,87,0.00,,,0.00,0,HR-IXPWINDi_r2_v1.2.,2013-01-26 02:25:00,
2013-01-25 21:30:00,17.8,14.6,30.06,WNW,289,0.0,2.0,87,0.00,,,0.00,0,HR-IXPWINDi_r2_v1.2.,2013-01-26 02:30:00,
2013-01-25 21:36:00,17.8,14.6,30.06,WNW,289,0.0,1.0,87,0.00,,,0.00,0,HR-IXPWINDi_r2_v1.2.,2013-01-26 02:36:00,
2013-01-25 21:41:00,17.8,14.6,30.06,WSW,240,0.0,2.0,87,0.00,,,0.00,0,HR-IXPWINDi_r2_v1.2.,2013-01-26 02:41:00,
2013-01-25 21:46:00,17.8,14.6,30.06,WSW,240,0.0,2.0,87,0.00,,,0.00,0,HR-IXPWINDi_r2_v1.2.,2013-01-26 02:46:00,
2013-01-25 21:51:00,17.8,14.6,30.08,WSW,241,0.0,2.0,87,0.00,,,0.00,0,HR-IXPWINDi_r2_v1.2.,2013-01-26 02:51:00,
2013-01-25 21:56:00,17.8,14.6,30.08,SW,231,0.0,3.0,87,0.00,,,0.00,0,HR-IXPWINDi_r2_v1.2.,2013-01-26 02:56:00,
2013-01-25 22:01:00,17.8,14.6,30.08,SW,231,0.0,4.0,87,0.00,,,0.00,0,HR-IXPWINDi_r2_v1.2.,2013-01-26 03:01:00,
2013-01-25 22:07:00,17.8,14.6,30.08,SW,231,2.0,4.0,87,0.00,,,0.00,0,HR-IXPWINDi_r2_v1.2.,2013-01-26 03:07:00,
2013-01-25 22:12:00,18.0,14.8,30.08,SW,223,4.0,5.0,87,0.00,,,0.00,0,HR-IXPWINDi_r2_v1.2.,2013-01-26 03:12:00,
2013-01-25 22:17:00,18.0,14.8,30.08,SW,226,2.0,5.0,87,0.00,,,0.00,0,HR-IXPWINDi_r2_v1.2.,2013-01-26 03:17:00,
2013-01-25 22:22:00,18.0,14.8,30.09,SW,226,0.0,4.0,87,0.00,,,0.00,0,HR-IXPWINDi_r2_v1.2.,2013-01-26 03:22:00,
2013-01-25 22:27:00,18.0,14.8,30.09,SW,219,0.0,5.0,87,0.00,,,0.00,0,HR-IXPWINDi_r2_v1.2.,2013-01-26 03:27:00,
2013-01-25 22:32:00,18.0,14.8,30.09,SW,222,3.0,5.0,87,0.00,,,0.00,0,HR-IXPWINDi_r2_v1.2.,2013-01-26 03:32:00,
2013-01-25 22:38:00,18.1,14.9,30.09,WNW,295,0.0,5.0,87,0.00,,,0.00,0,HR-IXPWINDi_r2_v1.2.,2013-01-26 03:38:00,
2013-01-25 22:43:00,18.1,14.9,30.09,WSW,253,0.0,5.0,87,0.00,,,0.00,0,HR-IXPWINDi_r2_v1.2.,2013-01-26 03:43:00,
2013-01-25 22:48:00,18.1,14.9,30.09,NW,304,2.0,3.0,87,0.00,,,0.00,0,HR-IXPWINDi_r2_v1.2.,2013-01-26 03:48:00,
2013-01-25 22:53:00,18.1,14.9,30.09,WNW,296,0.0,2.0,87,0.00,,,0.00,0,HR-IXPWINDi_r2_v1.2.,2013-01-26 03:53:00,
2013-01-25 22:58:00,18.1,14.9,30.09,SW,229,2.0,3.0,87,0.00,,,0.00,0,HR-IXPWINDi_r2_v1.2.,2013-01-26 03:58:00,
2013-01-25 23:04:00,18.1,14.9,30.09,SW,224,1.0,5.0,87,0.00,,,0.00,0,HR-IXPWINDi_r2_v1.2.,2013-01-26 04:04:00,
2013-01-25 23:09:00,18.3,15.4,30.09,WSW,238,3.0,6.0,88,0.00,,,0.00,0,HR-IXPWINDi_r2_v1.2.,2013-01-26 04:09:00,
2013-01-25 23:14:00,18.3,15.4,30.09,SW,219,3.0,6.0,88,0.00,,,0.00,0,HR-IXPWINDi_r2_v1.2.,2013-01-26 04:14:00,
2013-01-25 23:19:00,18.4,15.5,30.09,SW,221,3.0,5.0,88,0.00,,,0.00,0,HR-IXPWINDi_r2_v1.2.,2013-01-26 04:19:00,
2013-01-25 23:25:00,18.4,15.5,30.10,WSW,241,2.0,6.0,88,0.00,,,0.00,0,HR-IXPWINDi_r2_v1.2.,2013-01-26 04:25:00,
2013-01-25 23:30:00,18.4,15.5,30.10,WSW,241,2.0,6.0,88,0.00,,,0.00,0,HR-IXPWINDi_r2_v1.2.,2013-01-26 04:30:00,
2013-01-25 23:35:00,18.6,15.7,30.10,SW,230,3.0,6.0,88,0.00,,,0.00,0,HR-IXPWINDi_r2_v1.2.,2013-01-26 04:35:00,
2013-01-25 23:40:00,18.6,15.7,30.10,SW,229,5.0,7.0,88,0.00,,,0.00,0,HR-IXPWINDi_r2_v1.2.,2013-01-26 04:40:00,
2013-01-25 23:45:00,18.6,15.7,30.10,SW,236,0.0,7.0,88,0.00,,,0.00,0,HR-IXPWINDi_r2_v1.2.,2013-01-26 04:45:00,
2013-01-25 23:50:00,18.6,15.7,30.11,WSW,240,1.0,6.0,88,0.00,,,0.00,0,HR-IXPWINDi_r2_v1.2.,2013-01-26 04:50:00,
2013-01-25 23:56:00,18.6,15.9,30.11,WSW,238,0.0,6.0,89,0.00,,,0.00,0,HR-IXPWINDi_r2_v1.2.,2013-01-26 04:56:00,